Wind_Speed
46 46 47 47 47 47 47 47 48 48 48 48 48 48 47 47 48 48 49 50 50 50 50 50 50 49 49 49 49 49 50 50 51 50 50 50 50 51 51 52 53 53 52 51 50 49 48 47 46 45 44 43 43 42 41 40 39 39 37 36 40 48 53 56 57 58 59 58 55 53 53 52 51 48 46 45 43 43 45 45 46 44 41 41 42
47 47 47 48 48 47 47 48 48 47 47 47 47 47 47 48 49 50 50 51 51 51 50 50 50 50 50 51 51 51 52 52 52 52 52 52 52 52 53 53 54 54 53 52 50 49 48 47 46 45 44 44 43 42 42 40 39 39 37 36 39 49 53 55 56 58 59 59 57 53 52 52 51 49 48 48 46 46 45 44 46 46 44 45 46
49 49 49 49 48 48 48 48 48 48 48 48 48 49 49 50 51 51 51 51 51 50 50 50 50 50 51 52 52 53 53 53 53 53 53 54 54 54 53 53 52 53 53 52 51 50 49 48 47 46 46 45 44 43 42 41 40 39 38 36 39 48 55 56 56 58 59 59 59 56 53 53 53 51 50 49 48 48 47 45 47 50 49 48 48
50 51 51 50 49 49 50 50 50 49 49 49 50 50 51 52 52 52 52 51 51 51 51 51 51 52 52 53 53 54 54 55 55 55 55 55 55 55 54 54 53 53 53 53 52 51 51 50 49 48 47 47 47 46 44 42 41 41 40 38 39 46 55 58 58 57 57 57 58 57 55 53 52 52 51 50 49 49 49 49 49 52 53 50 49
50 51 51 50 50 51 51 51 51 51 51 51 51 52 52 53 53 53 52 52 52 52 52 52 53 53 53 54 54 55 56 56 57 57 57 57 57 57 57 57 57 56 55 54 54 53 53 53 52 52 50 49 49 48 47 44 42 42 41 40 39 44 53 58 59 58 56 54 54 55 54 52 51 51 51 51 51 50 50 52 51 50 51 50 49
50 50 50 50 51 52 52 52 52 52 52 52 53 53 53 54 53 53 53 52 52 53 53 53 53 54 54 55 56 57 57 58 58 58 59 59 60 60 60 61 60 60 58 57 56 55 55 55 55 55 54 52 51 50 49 47 44 43 43 42 40 43 51 58 60 60 57 54 54 54 53 52 51 52 53 54 54 52 51 53 52 49 48 49 50
48 49 50 52 53 53 54 54 54 54 54 54 54 54 54 54 54 53 53 53 54 54 54 54 54 55 56 57 58 58 59 60 60 61 61 61 62 62 63 63 62 61 60 59 58 57 57 57 57 58 57 55 54 52 51 50 47 45 44 44 42 42 48 56 60 61 60 57 55 55 54 53 53 55 58 58 56 54 53 51 50 49 49 50 52
47 49 51 53 54 55 55 55 55 55 55 54 54 54 54 54 54 54 55 55 55 54 55 55 56 57 58 58 59 60 60 61 62 63 63 63 64 64 64 63 63 62 61 60 60 59 58 58 58 59 59 58 56 54 53 52 50 48 46 45 45 44 47 54 60 63 64 62 59 57 55 55 55 57 60 60 58 56 54 51 50 50 52 53 55
49 50 52 53 54 55 55 55 55 55 55 55 55 55 55 55 55 55 55 55 56 56 57 57 58 59 59 60 61 62 62 63 63 64 65 65 66 65 64 63 63 62 62 61 61 60 59 59 59 58 59 59 57 55 54 53 52 51 49 47 47 46 47 52 60 64 66 66 64 61 58 57 57 57 57 58 58 58 57 55 53 53 55 56 57
52 53 53 53 54 54 54 55 55 55 55 55 55 55 56 56 56 56 56 57 57 58 58 59 59 60 61 62 63 64 64 64 65 65 66 66 67 66 66 65 64 64 63 63 62 61 60 60 59 59 58 58 58 56 55 54 54 53 52 50 49 49 48 50 58 65 66 67 66 65 62 60 60 59 57 57 58 59 60 59 58 58 59 58 58
54 54 54 53 53 52 53 53 54 54 54 55 55 56 56 57 57 57 58 58 59 60 60 60 61 62 63 64 65 66 66 66 66 67 67 67 68 68 67 66 66 65 65 64 64 63 63 62 60 60 59 58 57 57 56 55 55 54 55 53 51 51 51 50 55 64 68 68 67 67 65 63 62 62 61 60 59 60 61 61 60 61 63 62 61
54 55 55 55 54 54 54 53 53 54 55 55 56 56 57 57 58 59 59 60 60 61 61 62 63 64 65 66 67 67 68 68 68 69 69 69 69 69 69 68 68 67 67 66 65 65 65 64 63 61 60 59 58 57 57 56 56 56 56 56 54 53 53 52 53 60 68 71 69 69 69 68 65 63 63 62 60 60 62 63 62 63 64 64 63
55 56 57 57 57 56 56 55 55 55 56 56 56 57 58 58 59 60 61 61 62 62 63 64 65 66 67 68 68 69 70 70 71 71 72 72 72 71 71 70 70 69 68 67 66 66 65 65 65 64 62 60 59 59 58 58 57 57 57 58 57 55 55 55 55 56 64 71 73 72 72 72 69 65 64 64 63 63 63 63 62 62 63 63 62
56 56 57 57 57 57 58 58 58 58 58 58 58 59 59 60 61 62 62 63 63 64 65 66 67 68 68 69 70 71 72 73 74 74 75 75 75 74 73 72 72 71 70 68 68 67 66 66 66 65 64 63 61 60 60 59 59 59 59 59 59 59 57 57 58 57 60 67 73 75 74 74 73 70 68 67 66 66 64 62 61 60 60 60 61
57 57 56 56 57 57 58 58 59 60 60 60 61 61 61 62 62 63 63 64 65 66 67 68 68 69 70 71 72 73 74 75 76 77 78 77 77 76 75 74 73 71 71 70 69 69 68 68 67 66 66 65 64 62 62 61 60 60 61 61 61 62 61 59 60 60 60 63 71 77 77 75 74 74 73 72 71 69 68 66 64 63 62 61 61
57 57 56 56 56 56 57 58 59 60 60 61 61 61 62 63 63 64 64 65 66 67 68 69 70 71 72 73 74 76 77 78 79 79 79 78 77 76 75 74 73 72 72 72 72 71 70 69 69 68 67 67 66 65 64 63 62 62 63 63 63 64 64 62 61 62 62 62 68 76 80 78 75 74 75 76 75 74 73 71 69 69 68 67 65
58 59 56 54 53 53 54 56 57 58 60 60 61 62 63 63 63 64 65 66 67 68 69 70 72 73 74 75 77 78 79 80 81 80 80 78 77 76 75 74 75 75 75 74 74 73 72 71 70 69 68 68 67 67 66 65 65 64 64 66 65 65 65 65 63 64 64 63 65 72 80 82 79 76 76 76 78 78 78 76 74 73 72 71 70
60 59 57 54 52 52 53 54 55 57 58 60 61 63 63 64 64 65 66 67 68 70 71 72 74 75 76 78 79 80 81 82 81 80 79 78 77 77 77 78 78 78 78 77 76 74 72 70 69 68 68 68 67 67 67 67 67 66 66 67 67 67 67 66 65 65 66 66 66 69 77 83 84 81 78 77 77 79 79 79 78 76 74 72 70
60 59 58 56 55 55 55 56 56 57 58 59 61 62 63 64 65 66 68 69 70 72 73 74 75 77 78 79 81 82 82 81 80 79 78 78 78 79 80 81 81 80 79 78 76 73 71 68 66 64 64 64 65 66 67 67 67 67 68 68 68 68 67 67 67 67 67 68 69 69 72 80 86 86 83 80 78 79 78 78 79 78 76 74 72
60 59 58 58 58 58 58 59 59 59 59 60 61 62 63 64 66 67 69 70 72 73 74 75 77 78 80 81 82 82 81 80 79 79 79 79 80 81 82 82 81 79 78 76 75 73 70 67 65 62 61 60 61 63 65 65 66 66 67 69 69 68 68 69 70 70 69 70 72 71 71 75 82 88 88 85 81 80 80 79 78 77 76 76 74
60 59 59 59 60 60 61 61 61 61 61 61 61 62 63 64 66 68 69 71 72 73 75 77 78 80 81 82 81 81 80 79 79 79 80 81 82 82 81 79 78 76 75 74 73 71 69 67 64 62 59 58 57 58 61 63 64 65 65 67 69 68 69 71 72 71 71 72 73 74 74 74 78 84 90 91 88 85 83 81 78 77 77 77 76
60 60 60 60 61 62 63 62 62 62 62 62 62 62 63 65 66 68 69 71 73 74 77 79 80 81 81 81 80 79 79 79 80 81 81 81 80 79 77 75 74 73 72 72 70 69 67 65 62 59 57 55 54 54 55 58 61 63 64 66 67 67 69 71 73 73 73 73 74 75 75 75 76 80 86 92 94 91 87 84 81 78 77 77 76
61 61 61 62 63 63 63 62 62 62 62 62 62 63 64 66 67 69 70 72 74 77 78 80 80 80 79 79 78 78 79 80 81 81 80 78 76 75 74 72 71 70 69 68 67 66 64 62 59 56 54 52 51 50 50 51 55 59 62 63 65 66 69 71 73 75 75 74 75 76 77 78 78 78 81 88 94 95 93 90 86 82 80 78 77
61 62 62 63 63 63 62 62 62 61 61 62 62 64 65 67 68 70 72 74 76 78 78 79 78 78 77 77 78 79 80 80 79 78 76 75 74 73 71 70 68 67 66 65 63 62 60 59 57 54 51 50 48 48 47 46 48 52 57 60 62 64 67 70 72 74 75 75 76 76 78 80 81 81 81 83 87 93 95 94 92 89 84 82 81
62 63 64 63 62 62 61 61 60 60 61 62 63 65 66 68 70 72 74 75 76 77 77 76 76 76 77 78 79 80 79 78 76 75 74 73 71 69 68 67 65 64 63 61 59 57 55 53 52 50 47 45 44 44 45 44 44 46 51 55 57 60 64 68 71 73 74 75 77 77 79 81 82 83 83 82 83 87 91 93 94 94 91 88 85
62 62 62 61 61 60 59 59 59 60 61 62 64 66 68 70 71 73 74 74 74 74 75 75 76 77 78 79 79 78 77 75 74 73 71 69 68 66 65 63 62 60 59 57 56 53 51 49 48 47 44 42 40 39 40 41 41 42 46 50 53 56 60 64 69 72 74 76 77 78 80 82 83 85 86 85 84 84 87 90 92 94 94 93 90
60 59 59 58 58 57 57 58 59 60 62 64 66 67 69 70 71 71 72 72 72 73 74 75 77 78 78 77 76 75 74 72 71 69 68 67 65 63 61 59 58 57 57 56 55 53 51 48 46 45 43 42 40 38 36 36 38 40 42 45 49 52 55 60 65 70 74 77 78 79 81 84 86 87 88 88 87 85 85 87 89 92 93 94 93
56 56 55 55 55 56 57 59 60 62 63 65 66 67 68 69 69 69 70 71 72 74 76 77 77 76 75 74 73 72 70 69 67 67 65 63 61 60 58 57 56 56 56 57 56 55 52 49 46 43 39 37 38 38 35 33 34 37 38 41 45 49 52 55 60 66 73 77 78 79 82 86 87 87 87 88 89 88 87 86 87 89 91 92 92
52 52 53 54 55 56 58 59 61 63 64 65 66 66 66 67 67 68 70 72 74 76 76 76 75 74 73 71 69 68 66 65 64 62 61 59 58 56 55 54 54 55 55 56 56 55 52 49 45 41 37 34 33 34 34 32 32 34 35 38 42 46 49 51 56 61 68 73 76 78 82 85 85 85 86 87 88 89 89 88 86 87 89 90 91
49 50 52 54 55 57 59 60 61 62 63 64 64 64 65 66 68 70 71 73 75 75 75 74 73 71 69 68 66 65 63 62 60 58 56 55 54 53 53 53 53 53 54 54 53 52 51 48 45 42 39 35 33 31 31 31 31 31 32 35 38 43 45 48 51 56 62 68 73 77 81 83 84 84 85 87 88 89 90 90 88 87 87 89 91
49 51 53 55 56 58 59 60 61 61 61 61 62 64 66 68 70 72 73 73 73 73 72 71 69 67 65 64 62 61 59 57 55 54 53 52 51 51 51 52 52 52 52 52 51 50 48 47 45 43 40 37 34 31 30 29 29 29 30 32 35 38 42 45 48 52 58 62 67 73 78 81 83 84 84 86 88 89 90 90 90 89 88 88 89
51 53 54 56 57 58 58 58 58 58 59 61 63 65 68 70 72 73 73 72 71 70 68 67 65 63 61 59 57 56 54 53 51 50 50 50 50 50 50 51 51 50 50 49 48 47 46 45 43 42 39 36 33 31 29 28 27 28 28 30 32 35 38 41 44 48 53 57 62 68 74 78 82 82 82 83 86 89 90 90 90 90 90 89 88
52 53 54 55 55 55 55 55 57 58 61 63 65 68 70 71 71 71 71 70 68 66 64 63 61 59 57 55 53 51 50 49 48 48 48 49 49 50 50 50 49 49 48 47 46 45 44 43 41 39 37 35 32 30 29 27 26 26 27 28 30 32 35 38 42 45 49 53 58 63 68 73 78 80 80 81 85 88 89 89 89 90 91 90 90
51 51 51 52 52 52 54 56 58 60 63 66 68 69 70 70 70 69 68 66 64 62 61 59 57 54 52 51 49 48 46 46 46 47 47 47 48 48 48 47 47 46 46 45 44 43 42 41 39 37 35 33 30 28 27 27 25 24 25 26 28 30 32 35 39 42 46 50 54 58 62 67 72 75 77 79 83 86 87 87 88 89 90 91 91
48 49 49 50 52 53 55 58 60 63 65 67 68 68 68 68 67 66 65 63 61 59 56 54 52 50 49 47 45 44 44 44 45 46 46 46 46 46 46 45 44 44 44 43 43 42 40 39 38 36 34 32 30 27 26 25 25 24 23 24 26 28 30 32 35 39 42 46 49 53 57 61 65 69 72 75 79 82 84 85 86 88 89 91 92
47 49 50 52 54 56 58 61 63 65 65 66 66 66 66 65 64 63 62 60 58 55 52 50 48 47 45 44 43 42 43 44 45 45 45 45 45 45 44 43 43 42 42 41 41 39 38 37 36 35 33 31 29 27 25 24 23 23 23 23 23 25 28 30 32 35 39 42 46 49 53 57 60 62 65 69 73 77 80 82 84 86 88 90 92
49 50 52 54 57 59 61 62 63 64 64 64 64 64 63 62 61 59 58 56 54 51 49 47 45 43 42 42 42 42 42 43 44 44 44 44 44 43 42 41 41 41 40 40 39 38 37 35 34 34 33 31 29 27 25 24 22 22 22 22 23 23 25 27 30 33 36 39 43 46 49 52 56 58 60 63 67 71 74 77 80 83 86 89 92
50 53 55 57 59 61 61 62 62 62 63 63 62 61 60 59 57 55 53 52 50 48 46 44 42 41 41 41 41 42 42 42 42 43 42 42 42 41 40 39 39 39 39 38 37 36 35 34 33 32 31 30 29 27 25 24 22 22 21 22 22 23 24 25 27 30 33 36 39 43 46 49 52 55 57 59 62 65 68 72 76 79 83 86 90
53 56 58 59 60 60 60 61 61 61 61 60 59 58 57 55 53 50 49 48 46 44 43 42 41 40 40 40 40 41 41 41 41 41 41 40 39 38 38 38 38 38 37 37 35 34 33 33 32 31 30 29 28 27 25 24 23 22 21 21 21 22 23 24 25 27 30 32 36 39 43 46 49 51 53 56 58 60 63 66 70 74 78 82 85
56 58 58 59 59 59 59 60 60 59 59 58 57 55 53 51 49 47 45 44 42 42 41 41 40 40 40 40 39 39 39 39 39 39 39 38 37 36 36 37 37 37 36 36 35 34 33 32 31 30 29 28 27 27 26 25 23 22 22 21 21 21 22 23 24 26 28 30 32 35 39 42 45 48 50 52 53 55 58 61 64 68 72 76 80
57 57 57 58 58 59 59 59 58 57 56 55 53 51 49 48 46 44 42 41 41 40 40 40 40 39 39 38 37 37 38 38 38 38 37 36 35 35 35 36 36 36 36 36 35 34 33 32 31 29 28 27 26 26 25 25 24 23 22 21 21 21 22 22 23 25 26 28 30 32 35 38 41 44 47 49 51 52 54 57 59 63 66 70 73
56 56 57 57 58 58 58 57 56 55 53 52 50 48 46 44 42 41 40 40 40 40 39 39 38 37 36 36 36 36 36 36 37 36 35 35 35 35 35 35 36 36 36 35 35 34 33 32 31 30 28 27 26 25 24 24 24 24 23 21 21 20 21 22 23 24 25 26 28 30 32 34 37 40 43 46 48 50 52 54 56 59 62 65 68
56 56 57 57 58 57 56 55 53 52 50 49 47 45 43 41 40 40 40 40 39 38 37 36 35 35 34 34 34 35 35 35 35 34 34 34 34 35 35 35 35 36 35 35 35 35 34 33 32 31 30 28 26 25 25 24 24 23 23 23 22 21 21 21 21 23 24 25 26 28 30 31 33 36 38 41 44 47 49 52 54 56 59 62 65
56 57 57 57 56 55 54 53 51 49 48 46 44 42 40 40 40 39 39 38 37 36 35 33 33 32 33 33 34 34 34 33 33 33 34 34 34 34 35 35 35 35 35 35 36 36 35 35 34 33 31 30 28 27 26 25 24 24 24 24 24 23 23 22 22 22 22 24 25 26 28 29 31 33 35 37 39 42 45 48 51 54 57 59 62
57 56 56 55 54 53 52 51 49 47 45 42 41 40 40 39 39 38 37 35 34 33 32 31 31 31 32 32 33 33 33 32 32 33 33 33 33 34 34 35 35 35 35 36 36 36 37 36 35 34 33 31 30 28 27 26 25 24 24 24 24 24 24 24 24 23 23 23 24 25 26 27 29 30 32 34 36 38 41 43 46 49 52 55 58
56 55 54 53 52 51 50 49 46 44 41 40 39 39 39 38 37 36 35 33 32 30 30 30 30 30 31 32 32 32 32 32 32 33 33 33 33 34 34 34 35 35 35 36 36 37 37 37 37 36 35 33 32 30 29 27 26 25 24 24 24 24 25 25 25 25 25 25 25 25 25 26 27 28 30 32 34 35 37 39 42 44 47 50 53
55 53 52 51 49 48 47 45 43 41 40 40 39 38 37 37 36 34 33 31 30 29 29 29 29 30 31 31 31 31 31 32 32 33 34 34 34 34 35 35 35 36 36 36 37 37 38 38 38 37 36 35 33 32 31 29 28 26 25 24 24 24 24 25 25 25 25 26 26 26 26 27 27 28 29 30 32 33 35 37 39 41 43 45 48
53 51 50 49 47 45 43 42 41 41 40 39 38 37 36 35 34 33 32 30 29 28 28 29 29 30 30 30 30 30 31 32 33 34 34 35 35 36 36 37 37 37 37 37 37 38 38 38 39 38 38 36 35 34 32 31 30 28 27 26 25 24 24 24 25 25 25 26 26 26 27 27 28 28 29 30 31 32 34 35 37 39 40 42 44
50 49 48 46 44 42 40 40 40 40 39 38 37 36 35 34 33 32 31 30 29 29 29 29 30 30 30 30 30 30 31 32 33 33 34 35 36 36 37 38 39 39 39 39 38 38 38 39 39 39 39 38 37 35 34 32 31 30 29 28 27 26 25 25 25 25 25 26 26 26 27 27 28 28 29 30 31 32 33 34 36 37 39 40 42
48 46 44 42 41 40 40 39 39 38 38 37 36 35 34 33 32 31 30 29 29 30 30 30 30 30 30 30 30 30 31 32 33 34 35 36 37 37 38 39 40 41 41 41 41 40 40 40 40 40 39 39 38 37 36 34 33 32 30 29 29 28 27 26 26 26 26 26 27 27 27 28 28 29 29 30 31 32 33 34 35 36 37 39 40
45 43 41 40 39 39 39 38 37 36 35 35 34 33 33 32 31 31 30 30 30 30 30 30 30 30 31 31 32 32 33 34 35 35 36 37 38 38 39 39 40 41 42 43 43 43 43 43 43 42 41 40 39 38 37 36 35 34 32 31 30 29 29 28 28 27 27 27 28 28 28 29 29 30 30 31 31 32 33 34 35 36 37 38 39
Wind_Direction
268 269 270 272 273 274 274 275 275 276 276 276 276 277 277 278 278 279 280 280 282 283 284 285 285 285 285 286 287 287 289 290 291 290 290 291 291 291 290 290 290 290 291 291 289 286 284 284 284 284 284 283 282 280 277 274 273 273 273 264 245 234 231 232 232 233 236 240 242 243 244 245 247 246 243 242 243 245 250 254 257 260 260 261 261
268 269 270 271 272 273 273 274 274 274 274 274 274 274 275 276 277 278 279 280 282 284 285 285 285 285 286 287 288 289 290 290 290 289 289 290 290 290 291 290 290 289 289 288 287 284 281 281 283 283 283 283 282 281 278 274 272 271 272 265 247 234 231 231 231 232 235 238 241 242 242 243 245 245 244 243 242 243 246 250 255 258 257 258 260
267 268 269 270 271 272 272 272 272 271 271 272 272 273 274 276 277 279 280 282 283 284 285 285 285 286 287 288 289 290 290 290 289 289 290 290 290 290 290 290 290 289 288 286 285 283 279 278 280 282 283 283 282 281 279 275 271 269 269 265 250 236 232 231 231 232 235 237 240 241 240 240 242 244 244 243 243 243 242 244 249 253 254 254 256
267 267 268 270 271 271 270 270 270 270 271 272 273 274 275 277 278 280 281 282 283 283 284 284 286 287 288 289 289 289 289 289 290 290 290 291 291 290 289 289 289 289 288 286 284 282 279 277 277 279 281 282 282 280 279 275 271 268 267 265 254 240 233 231 230 231 235 238 240 241 241 241 241 243 243 243 244 243 240 239 244 249 251 252 253
268 268 268 269 269 269 269 270 270 271 271 272 273 275 276 277 278 280 281 282 283 283 284 285 286 287 287 288 288 289 289 290 290 290 290 290 290 290 289 289 289 289 287 285 283 281 280 277 276 277 279 281 280 279 278 275 272 267 264 263 257 244 235 232 230 230 232 236 239 241 241 241 242 243 243 243 244 244 240 240 243 247 251 253 254
271 270 270 269 269 269 269 270 270 271 272 273 274 275 276 278 279 281 282 282 282 283 284 285 286 286 287 287 288 288 289 290 290 290 290 290 290 290 290 290 289 288 287 285 283 281 279 277 276 275 276 278 279 278 276 274 271 267 263 261 259 248 238 234 231 229 230 232 235 237 238 239 240 241 241 242 243 243 243 242 242 246 251 254 255
273 272 271 269 269 269 269 270 271 272 273 274 275 276 277 279 280 281 281 281 282 283 284 284 285 286 286 287 287 288 289 289 289 290 290 290 291 291 291 290 289 288 287 285 283 281 279 278 276 275 275 276 276 275 273 272 270 267 263 259 258 252 242 236 232 229 228 230 232 234 235 235 235 237 240 241 241 242 243 243 243 246 250 253 254
274 273 271 270 270 270 270 271 272 273 274 275 275 276 277 278 279 280 280 280 281 282 283 284 284 285 286 287 287 288 288 289 289 290 291 291 292 292 292 291 290 288 287 285 283 282 280 279 277 276 275 274 274 272 270 269 267 266 263 259 256 253 245 238 233 230 228 228 230 232 233 233 232 235 240 241 241 240 241 241 242 245 247 249 252
274 274 273 272 271 271 272 272 273 273 274 274 275 276 277 278 278 279 279 280 281 282 283 284 285 286 286 287 287 288 289 289 290 291 292 293 293 293 292 291 290 289 287 285 283 281 280 279 277 276 275 274 273 271 267 265 264 263 262 259 255 253 248 240 234 232 231 230 230 232 233 232 231 234 239 242 242 241 240 239 240 241 244 247 250
273 273 273 272 272 272 272 272 272 273 273 274 275 276 277 277 278 279 280 281 282 283 284 285 286 286 286 287 287 289 290 290 291 292 293 294 294 294 293 292 291 290 288 287 285 283 281 279 277 276 274 273 272 270 266 262 261 260 260 259 255 252 249 243 236 233 232 232 232 232 232 232 231 232 236 240 242 242 241 240 239 239 242 245 248
271 272 272 272 272 272 273 272 273 273 274 275 276 277 278 279 279 280 281 282 283 284 285 285 286 286 286 287 289 290 291 291 292 293 294 295 294 294 293 293 292 291 288 287 285 284 282 280 278 276 274 272 271 269 266 262 259 258 257 257 255 252 249 246 239 233 232 232 232 232 232 232 232 233 235 237 240 242 241 240 240 240 242 244 247
269 269 269 270 271 272 273 273 274 275 276 276 277 278 279 280 281 282 283 283 284 284 285 285 286 287 288 289 290 291 291 292 294 295 295 295 294 294 293 293 292 291 289 286 284 283 282 281 279 277 274 272 270 268 266 263 259 256 255 255 254 252 249 247 242 236 232 231 231 232 232 232 232 233 234 236 238 241 242 242 242 243 245 246 248
269 268 269 269 270 271 273 274 275 276 277 277 278 279 280 281 282 282 283 283 284 284 285 286 287 288 289 290 290 291 293 294 295 296 296 296 295 294 293 293 292 291 289 286 284 283 282 280 279 278 275 273 270 268 265 263 260 256 254 253 253 251 249 247 244 240 234 231 230 231 232 233 232 232 233 234 236 238 241 243 244 245 247 248 249
270 270 270 271 271 272 273 273 274 275 276 277 278 279 280 281 281 282 282 283 283 284 285 286 288 288 289 290 291 293 294 295 296 296 297 296 296 295 294 293 292 290 289 287 285 284 282 281 279 278 276 273 270 268 265 263 260 257 254 252 252 250 248 246 244 242 238 233 230 230 232 233 233 232 232 233 235 236 238 240 241 242 244 246 247
271 270 271 272 273 274 274 274 274 275 276 277 278 279 280 281 281 282 282 283 284 285 286 287 288 289 290 291 293 294 295 296 296 297 296 296 295 294 293 292 291 290 288 287 286 284 282 281 279 277 276 274 271 268 265 263 260 258 255 252 250 249 248 246 243 242 240 236 231 229 231 232 233 233 233 233 234 235 236 237 238 239 240 242 244
271 271 272 274 275 276 277 277 276 276 277 278 279 279 280 281 282 282 283 284 285 286 287 288 289 290 291 292 293 294 295 296 296 296 296 296 295 294 293 292 291 290 289 287 286 284 282 281 279 277 275 274 271 269 267 264 260 258 255 252 250 248 248 246 243 242 240 238 234 230 230 231 232 233 234 235 235 236 236 237 239 240 241 242 244
272 274 276 277 278 279 279 279 279 278 278 279 279 279 280 281 282 283 284 285 286 287 289 289 290 291 292 293 294 294 295 296 296 296 296 295 295 294 294 293 292 291 290 288 286 285 283 281 280 278 276 274 272 269 267 264 261 258 255 253 250 248 247 246 244 242 240 238 236 232 230 230 230 231 233 235 237 237 237 238 239 241 242 244 245
274 277 280 282 282 281 281 281 281 280 280 280 279 280 280 281 282 284 285 286 288 289 290 290 291 292 293 293 294 295 295 296 296 296 296 296 296 295 295 295 294 293 291 290 288 286 284 282 280 279 277 275 272 270 267 264 262 259 256 254 252 249 247 245 244 242 240 238 236 234 232 230 230 230 232 234 236 238 239 239 240 241 242 243 244
276 279 282 284 284 283 284 284 283 283 283 282 282 282 282 282 283 285 286 288 289 290 290 291 291 292 293 294 294 295 296 296 296 296 296 296 296 296 296 296 295 294 293 292 290 289 287 285 282 280 277 275 272 270 268 264 261 258 256 254 252 250 248 246 243 241 240 238 236 235 233 231 230 229 231 233 235 237 239 240 240 241 241 242 243
277 280 282 283 284 285 285 285 286 286 286 287 286 286 285 285 286 287 287 288 289 290 290 291 292 293 294 294 295 296 296 296 296 296 297 297 297 298 297 297 296 296 295 294 293 292 290 288 286 283 280 276 272 270 268 265 262 258 256 253 252 250 247 245 243 241 239 237 236 235 234 233 232 230 230 231 233 235 236 238 239 240 240 241 242
278 280 281 282 283 284 285 286 287 288 288 288 288 288 288 288 287 288 288 289 289 290 291 292 292 293 294 295 296 296 296 296 297 297 298 299 299 298 298 298 297 296 296 295 294 293 292 291 289 287 283 279 274 269 266 264 262 259 255 253 251 249 246 244 243 241 238 237 236 235 234 233 233 232 230 230 232 234 235 236 237 238 239 240 241
277 278 279 280 281 282 284 285 287 288 288 288 288 288 288 288 288 288 289 289 290 291 291 292 293 294 295 295 296 296 296 297 298 299 299 299 299 298 298 298 297 297 297 297 296 295 294 293 291 289 286 282 277 271 266 262 260 258 255 252 249 248 245 243 242 241 239 237 235 235 235 234 233 233 232 231 231 233 235 236 237 237 238 239 240
276 277 278 279 280 281 283 285 286 286 287 287 287 287 287 287 288 288 289 290 290 291 292 293 294 294 295 295 295 296 297 298 299 299 299 299 299 299 299 299 299 299 298 298 298 297 297 296 294 292 290 286 281 275 269 263 259 257 255 252 248 246 244 242 241 240 239 237 235 234 234 234 233 233 233 232 231 232 233 235 236 236 236 237 238
275 275 276 277 279 281 282 284 285 285 286 286 286 286 287 287 288 289 290 290 291 292 293 293 294 294 294 295 296 297 298 299 300 300 300 300 300 300 300 300 300 300 300 299 299 299 298 297 296 294 292 289 284 279 273 267 260 256 254 252 248 245 243 241 241 240 239 237 236 234 233 233 233 233 233 232 231 231 232 233 235 235 236 236 236
274 275 276 277 279 280 282 283 284 284 284 285 285 286 287 288 289 290 291 291 292 293 293 293 294 294 295 297 298 299 300 301 301 301 301 300 300 301 301 302 302 301 300 300 299 299 298 298 297 295 292 289 285 280 276 271 264 257 254 252 249 245 242 240 240 239 238 237 236 234 233 233 233 233 233 233 232 231 231 232 233 234 235 236 236
274 275 276 277 278 280 281 282 282 282 283 284 285 286 288 289 290 291 291 292 292 293 293 294 295 296 298 299 300 301 301 301 301 301 301 301 302 302 303 302 302 301 301 301 301 301 302 302 302 301 298 293 287 281 277 272 267 260 255 252 249 246 242 240 238 238 237 236 235 234 233 233 232 232 233 233 232 232 231 231 232 233 234 235 236
274 275 275 276 277 278 279 280 281 282 283 285 287 288 289 290 290 291 291 292 292 292 293 295 296 298 299 300 301 301 302 302 302 302 302 303 303 304 303 304 304 305 306 306 307 307 307 307 306 305 303 298 292 286 280 274 268 262 255 252 249 246 243 240 237 236 235 235 234 233 232 233 232 231 232 232 232 232 232 231 232 232 233 234 235
273 274 274 275 276 277 279 280 282 284 285 287 288 289 289 290 290 291 291 292 292 294 295 297 298 299 300 301 302 302 302 302 303 303 304 304 304 305 306 307 309 310 310 311 310 310 310 309 308 305 302 298 294 290 285 278 270 264 257 252 249 247 244 240 238 236 235 236 236 234 233 233 233 232 232 232 232 233 233 232 232 232 233 234 235
272 273 274 275 276 278 280 282 284 285 287 288 288 289 289 290 290 291 292 293 294 296 298 299 300 301 301 302 302 302 303 303 303 304 304 305 306 307 309 310 311 312 312 311 311 311 311 311 310 309 306 302 297 292 288 282 274 267 260 253 249 247 245 242 239 237 236 236 236 236 235 236 235 234 233 233 233 233 233 233 233 233 233 233 234
272 273 275 276 278 280 282 283 285 286 287 287 288 289 289 290 290 291 293 294 296 298 299 300 301 301 302 302 303 303 303 303 304 304 304 305 306 308 310 311 312 312 312 312 312 312 313 313 313 313 312 309 304 297 290 284 278 271 263 256 251 248 246 243 240 238 237 236 236 236 236 237 237 235 234 234 234 234 233 233 233 234 234 233 233
272 274 276 277 280 281 283 284 285 286 287 288 288 289 290 291 292 293 295 296 297 299 299 300 301 301 302 303 303 303 303 303 304 304 305 306 307 309 311 312 313 313 313 313 314 314 315 315 315 314 313 311 307 302 295 288 281 274 267 259 253 249 247 245 242 239 238 237 237 236 237 238 238 237 235 234 235 235 234 233 233 234 235 235 234
274 276 277 279 281 282 283 285 286 287 288 289 289 290 291 293 294 295 296 297 298 299 300 301 301 302 303 303 303 302 302 302 303 304 305 307 309 311 312 313 314 314 314 314 315 315 315 315 314 313 312 311 309 304 299 292 284 276 269 262 257 252 248 245 243 241 239 238 237 237 237 238 239 239 238 236 236 236 235 235 234 234 234 235 236
276 277 279 280 281 283 284 286 287 288 289 290 291 292 293 294 295 296 297 298 299 300 301 301 302 302 302 302 302 301 302 303 304 305 307 309 311 312 314 315 315 315 315 315 315 315 315 314 314 313 312 312 310 306 301 295 288 279 272 265 259 254 250 246 244 241 240 239 238 237 237 238 239 241 240 238 237 237 237 236 235 235 235 236 236
277 278 280 281 283 285 286 288 289 290 291 292 293 293 294 295 296 297 298 299 300 301 301 301 301 302 302 301 301 302 302 303 305 307 308 310 311 313 314 315 315 315 315 316 316 316 316 315 315 315 314 313 311 307 303 298 291 283 275 269 263 257 252 249 246 243 241 240 239 239 239 238 239 241 241 240 240 239 239 238 237 237 236 237 237
279 281 282 284 285 287 288 290 291 292 292 293 293 294 295 296 297 298 299 300 300 301 301 301 301 301 301 301 301 302 304 305 306 308 309 310 311 313 314 315 315 316 317 318 318 319 319 318 317 317 317 315 313 310 305 300 295 288 280 272 266 261 255 251 248 246 244 243 242 241 240 240 240 240 241 241 241 241 241 240 239 238 238 238 238
282 283 284 286 288 289 290 291 292 292 292 293 294 295 296 297 298 299 300 300 301 301 301 301 301 301 301 301 302 304 305 306 307 308 309 311 312 314 316 317 317 318 319 320 320 320 320 320 319 318 318 317 316 313 309 304 298 292 285 277 270 264 259 254 250 247 246 245 244 243 242 242 242 242 241 241 241 242 242 242 241 240 239 239 239
283 285 287 289 290 291 291 291 292 292 293 294 295 296 297 298 299 300 300 300 300 300 301 301 301 300 301 302 304 305 306 307 308 309 311 313 314 315 316 317 317 318 319 321 322 322 322 322 321 320 319 319 318 316 312 308 302 296 291 284 276 268 262 258 254 250 247 246 246 245 245 244 244 243 242 241 241 241 241 242 242 241 240 240 240
286 288 290 291 291 291 291 291 292 293 294 295 297 298 299 299 300 300 300 300 300 300 300 300 300 301 302 303 304 305 306 306 307 309 311 313 313 314 315 316 317 319 321 322 323 324 325 324 324 322 321 320 319 318 315 312 307 301 295 289 283 277 269 263 258 254 250 248 247 247 246 246 246 245 244 243 242 241 241 240 241 241 240 240 240
289 290 290 291 291 291 292 293 294 295 296 297 298 299 299 299 300 300 300 300 300 300 300 300 301 302 303 304 305 305 305 305 307 309 310 311 312 314 315 317 319 320 322 323 325 326 326 326 325 324 323 321 320 319 318 315 311 306 300 294 288 283 276 270 264 259 254 251 249 248 248 248 248 248 248 247 246 245 244 242 241 241 241 240 240
289 290 290 290 291 292 293 295 296 297 298 298 299 299 299 299 299 299 299 299 298 299 299 300 301 302 303 304 304 304 304 305 306 308 310 311 313 314 316 318 320 321 323 325 326 327 328 328 326 325 324 323 322 321 320 319 316 312 307 301 295 288 282 276 271 266 261 257 253 251 250 250 250 250 250 250 249 248 247 246 244 243 242 242 242
289 290 290 291 293 294 295 296 297 298 298 299 299 299 299 299 299 299 298 298 298 299 300 301 302 303 303 303 303 302 303 305 307 308 310 312 314 316 318 320 322 324 325 326 327 328 329 329 328 326 325 324 323 322 321 319 317 314 310 305 300 294 289 283 277 272 268 264 260 256 253 252 252 252 252 252 251 249 248 247 246 245 244 244 243
290 291 292 293 295 296 296 297 298 298 298 298 299 299 299 299 299 298 298 298 299 300 300 301 302 302 301 301 301 301 303 305 307 309 311 313 316 318 320 322 324 325 326 327 328 329 330 330 329 328 326 324 322 321 320 318 316 314 311 308 303 298 293 288 284 279 274 269 266 263 260 257 254 253 253 253 253 252 251 249 247 246 246 245 244
291 293 294 295 296 297 297 298 298 298 298 299 299 299 299 299 299 299 300 300 301 301 301 301 301 300 299 299 300 301 303 306 308 310 312 315 317 320 321 323 324 325 327 328 329 330 331 331 331 330 328 325 323 321 319 318 316 314 312 310 307 303 298 293 288 284 280 276 272 269 265 262 260 257 255 254 253 253 253 252 251 249 248 247 246
293 295 296 296 297 297 298 298 298 298 299 299 299 299 299 299 300 300 301 301 301 301 301 300 299 298 298 299 300 302 305 307 309 311 313 315 318 320 321 323 324 326 328 330 331 332 333 333 332 331 330 328 325 323 320 319 317 315 313 311 309 306 303 299 294 289 285 281 278 275 272 268 266 263 260 258 256 255 254 253 253 252 251 250 249
295 295 296 297 297 298 298 298 298 298 298 298 299 299 300 301 301 301 301 301 300 299 298 297 297 297 298 299 301 303 306 307 309 310 313 315 318 320 321 323 325 327 329 331 333 334 334 334 334 333 331 329 327 325 322 319 317 315 313 310 308 307 305 302 300 296 292 287 283 280 277 274 272 269 266 264 261 259 257 255 254 254 253 253 253
295 295 296 297 297 298 298 298 298 298 298 298 299 300 301 301 301 300 299 298 297 296 295 295 296 296 298 299 302 304 306 308 309 311 313 315 318 320 322 324 326 328 330 332 333 335 335 335 335 334 332 331 329 327 324 321 318 315 313 311 309 307 305 304 302 300 298 295 292 288 284 281 277 275 272 270 268 265 263 261 258 256 255 254 254
295 295 296 296 297 297 297 297 297 297 298 299 300 300 300 300 299 298 296 295 294 294 294 294 295 296 298 300 302 304 306 307 309 311 314 316 319 320 322 324 326 328 330 332 333 334 335 335 335 334 333 332 330 328 326 323 320 318 315 313 310 308 306 304 303 301 299 298 296 294 291 289 285 282 279 276 273 270 268 266 264 262 260 258 256
294 295 296 296 296 296 296 296 297 298 299 299 300 299 299 298 297 296 294 294 293 293 293 294 295 296 298 300 303 304 306 307 310 312 314 317 319 320 322 324 325 326 328 330 332 333 334 335 335 335 334 332 330 329 327 324 322 320 317 315 312 310 307 305 303 301 299 298 296 295 294 292 290 288 286 283 280 277 274 271 268 266 265 263 261
294 295 295 295 295 295 295 296 297 298 299 299 299 298 298 297 296 295 294 294 294 294 294 295 296 298 300 301 303 304 306 308 310 312 314 316 318 320 321 323 324 325 327 328 330 332 333 334 334 335 334 333 331 329 327 325 323 320 318 316 314 312 310 307 305 303 301 299 298 296 295 294 292 291 289 287 286 283 281 278 275 272 269 267 265
294 294 294 294 294 294 296 296 297 297 297 298 298 297 297 296 295 295 294 294 294 295 296 297 298 300 301 303 303 305 306 308 309 311 313 315 317 318 320 322 322 324 325 326 328 329 331 332 333 333 333 332 331 329 327 325 323 321 319 317 315 314 312 310 308 306 304 302 301 299 297 296 294 292 290 288 287 286 284 283 281 279 276 273 271
292 292 292 292 293 294 295 296 296 296 297 297 297 297 297 296 296 295 295 295 296 297 298 299 299 301 302 304 305 307 308 309 310 311 312 314 316 317 319 320 321 322 323 324 326 327 329 330 331 331 331 331 330 328 326 324 323 321 319 317 315 314 313 311 310 308 306 305 303 302 300 299 297 294 292 290 288 287 285 284 283 282 281 280 278
Height
10649 10649 10650 10650 10650 10650 10650 10649 10649 10649 10648 10648 10647 10647 10646 10646 10645 10645 10644 10643 10643 10642 10642 10641 10640 10639 10638 10636 10635 10634 10633 10632 10630 10629 10628 10627 10625 10624 10622 10621 10620 10619 10618 10617 10615 10614 10613 10612 10611 10610 10609 10608 10607 10606 10606 10605 10604 10603 10603 10603 10604 10606 10609 10612 10615 10617 10618 10620 10623 10626 10627 10628 10631 10635 10637 10639 10642 10643 10644 10645 10645 10647 10649 10650 10650
10644 10645 10645 10645 10645 10645 10645 10644 10644 10643 10643 10642 10642 10641 10641 10640 10640 10639 10638 10638 10637 10637 10636 10635 10634 10633 10631 10630 10628 10627 10626 10625 10624 10622 10621 10620 10618 10617 10616 10614 10613 10611 10610 10610 10608 10607 10606 10605 10604 10604 10603 10602 10601 10600 10599 10599 10598 10597 10597 10597 10598 10599 10602 10605 10608 10610 10611 10613 10616 10619 10621 10622 10625 10629 10631 10633 10635 10636 10638 10640 10640 10640 10642 10644 10644
10639 10640 10640 10640 10641 10640 10640 10639 10638 10637 10637 10637 10636 10636 10635 10634 10634 10633 10633 10632 10632 10631 10630 10629 10628 10627 10625 10624 10622 10621 10620 10618 10617 10616 10614 10612 10611 10610 10609 10607 10606 10604 10603 10602 10601 10600 10599 10599 10598 10597 10596 10595 10594 10594 10593 10593 10592 10591 10591 10591 10592 10593 10595 10598 10601 10603 10605 10606 10608 10612 10614 10617 10619 10622 10624 10627 10628 10630 10632 10633 10634 10634 10635 10637 10638
10635 10635 10636 10636 10636 10635 10634 10633 10632 10632 10632 10631 10631 10630 10629 10628 10628 10628 10627 10627 10626 10625 10624 10623 10622 10620 10619 10617 10616 10614 10613 10611 10610 10609 10607 10606 10604 10603 10602 10600 10599 10598 10596 10595 10594 10593 10592 10592 10591 10591 10590 10589 10588 10587 10587 10587 10586 10585 10585 10585 10585 10586 10588 10591 10594 10596 10598 10600 10601 10604 10607 10611 10613 10614 10617 10619 10620 10623 10625 10626 10627 10628 10627 10629 10631
10630 10630 10631 10631 10630 10629 10628 10627 10627 10627 10626 10626 10625 10624 10623 10623 10622 10622 10621 10621 10620 10619 10618 10617 10616 10614 10613 10611 10610 10608 10606 10604 10603 10602 10600 10599 10597 10596 10594 10593 10591 10590 10589 10587 10586 10585 10584 10584 10583 10583 10582 10582 10581 10580 10580 10580 10580 10579 10578 10578 10579 10579 10581 10583 10586 10589 10592 10593 10595 10597 10600 10605 10607 10607 10610 10612 10613 10615 10617 10618 10620 10621 10621 10622 10624
10625 10625 10625 10625 10623 10623 10622 10622 10622 10622 10621 10620 10619 10618 10618 10617 10617 10616 10616 10615 10614 10613 10612 10610 10609 10608 10606 10605 10603 10602 10600 10598 10596 10594 10593 10591 10590 10588 10586 10585 10583 10582 10580 10579 10578 10577 10576 10575 10575 10574 10574 10574 10573 10572 10572 10572 10572 10572 10572 10571 10572 10572 10573 10575 10578 10581 10584 10586 10588 10590 10593 10598 10600 10601 10602 10604 10605 10608 10609 10611 10613 10615 10616 10616 10617
10619 10619 10618 10617 10616 10616 10616 10617 10617 10617 10616 10615 10614 10613 10612 10612 10611 10610 10609 10609 10607 10606 10605 10604 10603 10601 10600 10599 10597 10595 10593 10591 10588 10587 10585 10583 10581 10580 10578 10576 10574 10573 10571 10570 10569 10568 10567 10566 10565 10565 10565 10565 10565 10564 10564 10564 10564 10564 10564 10565 10564 10565 10566 10567 10570 10573 10576 10578 10581 10583 10586 10590 10593 10594 10595 10596 10598 10601 10602 10604 10607 10609 10609 10610 10610
10613 10612 10611 10610 10610 10610 10611 10611 10611 10611 10610 10609 10608 10607 10606 10606 10605 10604 10603 10602 10601 10600 10599 10597 10596 10595 10593 10592 10590 10588 10586 10584 10581 10579 10577 10575 10573 10571 10569 10567 10565 10563 10562 10561 10560 10558 10557 10556 10556 10555 10555 10555 10555 10555 10555 10555 10556 10556 10556 10557 10557 10557 10558 10559 10562 10565 10568 10570 10573 10575 10579 10583 10585 10586 10587 10588 10591 10594 10595 10597 10600 10601 10601 10602 10603
10607 10605 10605 10604 10604 10604 10605 10606 10605 10605 10604 10603 10602 10601 10600 10599 10599 10598 10597 10596 10595 10594 10592 10591 10589 10588 10586 10584 10582 10580 10579 10577 10574 10571 10569 10566 10564 10562 10560 10558 10556 10554 10552 10550 10549 10549 10548 10547 10546 10546 10545 10545 10545 10546 10546 10546 10547 10546 10547 10549 10550 10549 10550 10551 10553 10556 10559 10562 10565 10568 10571 10575 10577 10578 10579 10581 10584 10586 10587 10588 10591 10593 10593 10594 10596
10600 10599 10599 10599 10599 10599 10600 10599 10599 10599 10598 10597 10596 10595 10594 10593 10592 10591 10590 10589 10588 10586 10585 10583 10582 10580 10578 10576 10574 10572 10571 10569 10567 10564 10561 10558 10555 10552 10550 10548 10547 10544 10542 10540 10538 10537 10537 10537 10536 10536 10536 10535 10535 10535 10535 10536 10537 10537 10537 10539 10541 10541 10542 10543 10545 10547 10551 10554 10556 10560 10563 10566 10568 10570 10572 10574 10575 10577 10578 10580 10583 10585 10585 10587 10589
10594 10594 10593 10593 10593 10594 10594 10593 10593 10592 10591 10590 10589 10589 10588 10587 10586 10585 10583 10582 10580 10579 10577 10576 10574 10572 10570 10568 10566 10564 10562 10560 10558 10555 10553 10550 10547 10544 10541 10539 10537 10534 10532 10530 10528 10526 10525 10525 10525 10525 10525 10525 10525 10524 10525 10525 10527 10528 10528 10529 10530 10532 10533 10534 10536 10538 10542 10545 10548 10551 10554 10556 10558 10561 10564 10566 10567 10568 10570 10573 10575 10576 10577 10580 10582
10589 10588 10588 10588 10588 10588 10587 10587 10586 10586 10585 10584 10583 10582 10581 10580 10579 10578 10576 10575 10573 10571 10570 10568 10566 10564 10562 10560 10558 10556 10553 10551 10549 10546 10544 10541 10538 10535 10532 10529 10527 10525 10522 10520 10519 10517 10515 10513 10513 10514 10514 10515 10515 10514 10514 10515 10516 10517 10517 10518 10520 10522 10524 10525 10527 10529 10532 10535 10539 10542 10544 10546 10549 10553 10555 10557 10559 10560 10562 10564 10566 10568 10570 10572 10575
10583 10583 10582 10582 10582 10582 10581 10581 10580 10579 10578 10577 10576 10575 10574 10573 10572 10570 10569 10567 10565 10563 10562 10560 10558 10556 10554 10552 10549 10547 10544 10542 10539 10537 10534 10531 10528 10525 10522 10519 10517 10514 10512 10510 10508 10507 10505 10503 10501 10501 10502 10503 10504 10504 10503 10504 10505 10506 10506 10508 10509 10511 10513 10515 10517 10519 10522 10525 10529 10532 10534 10537 10541 10544 10546 10548 10550 10552 10554 10556 10559 10561 10563 10565 10568
10577 10577 10576 10576 10576 10576 10575 10574 10574 10573 10572 10571 10570 10569 10568 10566 10565 10563 10561 10559 10558 10556 10554 10552 10550 10548 10546 10543 10541 10538 10535 10532 10529 10526 10523 10520 10517 10514 10511 10509 10506 10503 10501 10499 10497 10495 10494 10493 10491 10489 10489 10490 10491 10492 10492 10492 10493 10494 10495 10496 10498 10499 10502 10504 10507 10509 10511 10515 10519 10522 10524 10528 10532 10534 10536 10539 10541 10543 10546 10549 10551 10553 10555 10556 10557
10571 10571 10571 10571 10570 10570 10569 10568 10567 10566 10565 10564 10563 10562 10561 10559 10557 10556 10554 10552 10550 10548 10546 10544 10542 10540 10537 10535 10532 10529 10526 10522 10519 10516 10513 10510 10506 10503 10500 10497 10494 10492 10489 10487 10486 10484 10482 10481 10480 10479 10478 10477 10478 10479 10480 10481 10482 10482 10483 10484 10486 10487 10489 10493 10496 10498 10501 10504 10508 10511 10514 10518 10522 10524 10526 10529 10532 10534 10537 10539 10541 10543 10545 10547 10548
10564 10565 10565 10565 10565 10564 10563 10562 10561 10559 10558 10557 10556 10555 10553 10552 10550 10548 10546 10545 10543 10541 10539 10537 10534 10532 10529 10526 10523 10520 10516 10513 10509 10506 10502 10499 10495 10492 10488 10485 10482 10480 10478 10475 10473 10472 10470 10469 10467 10466 10466 10465 10465 10465 10466 10468 10470 10470 10470 10471 10473 10475 10477 10481 10484 10487 10490 10493 10496 10499 10503 10508 10511 10514 10517 10519 10522 10524 10527 10530 10532 10534 10536 10539 10541
10559 10559 10560 10560 10560 10559 10557 10555 10554 10553 10551 10550 10549 10547 10546 10544 10543 10541 10539 10538 10536 10534 10531 10529 10526 10523 10520 10517 10514 10510 10507 10503 10499 10495 10491 10487 10484 10480 10477 10473 10470 10467 10464 10462 10460 10458 10457 10456 10455 10454 10453 10452 10452 10452 10453 10454 10456 10458 10458 10458 10460 10463 10465 10469 10473 10475 10479 10482 10485 10487 10492 10496 10501 10504 10507 10509 10511 10514 10517 10520 10523 10524 10527 10530 10532
10554 10554 10554 10554 10554 10552 10551 10549 10548 10546 10545 10543 10542 10540 10539 10537 10536 10534 10532 10530 10528 10525 10523 10520 10517 10514 10511 10508 10505 10501 10497 10493 10489 10485 10481 10476 10473 10469 10465 10461 10457 10453 10450 10447 10445 10444 10443 10442 10442 10441 10440 10438 10438 10438 10438 10439 10441 10444 10444 10445 10447 10450 10453 10457 10461 10464 10467 10471 10473 10476 10479 10484 10489 10493 10497 10500 10502 10504 10507 10511 10513 10515 10519 10521 10523
10549 10548 10548 10547 10547 10546 10544 10543 10541 10540 10538 10537 10535 10533 10532 10530 10528 10526 10524 10522 10520 10517 10514 10511 10508 10505 10502 10499 10495 10491 10487 10483 10479 10475 10470 10466 10462 10458 10453 10449 10444 10439 10435 10432 10430 10428 10428 10428 10428 10428 10427 10425 10424 10423 10423 10424 10426 10429 10430 10431 10434 10437 10440 10444 10448 10451 10455 10458 10460 10464 10468 10471 10476 10481 10486 10490 10493 10495 10497 10501 10503 10507 10510 10512 10514
10543 10542 10542 10541 10540 10538 10537 10536 10534 10533 10531 10530 10528 10526 10524 10522 10520 10518 10516 10514 10511 10509 10506 10503 10500 10496 10493 10489 10485 10481 10477 10473 10469 10465 10461 10456 10452 10447 10442 10436 10432 10427 10423 10419 10416 10414 10413 10412 10413 10413 10413 10412 10411 10410 10409 10409 10411 10413 10416 10417 10420 10424 10428 10430 10433 10438 10442 10445 10448 10453 10457 10459 10463 10469 10475 10479 10482 10485 10487 10490 10493 10497 10500 10502 10504
10537 10536 10535 10534 10533 10532 10530 10529 10527 10526 10524 10522 10521 10519 10517 10515 10513 10511 10508 10506 10503 10500 10497 10494 10491 10487 10484 10480 10476 10471 10467 10463 10459 10455 10451 10446 10441 10436 10431 10426 10421 10416 10412 10408 10404 10401 10399 10399 10398 10398 10398 10397 10397 10396 10396 10395 10396 10398 10401 10403 10406 10411 10415 10416 10419 10424 10430 10433 10436 10440 10444 10448 10451 10456 10462 10467 10471 10473 10477 10480 10484 10487 10490 10491 10494
10531 10530 10529 10528 10527 10525 10524 10522 10521 10519 10517 10515 10514 10512 10510 10508 10505 10503 10500 10498 10495 10492 10489 10485 10482 10478 10474 10470 10466 10462 10458 10454 10450 10445 10441 10436 10430 10425 10421 10416 10411 10407 10402 10397 10393 10390 10387 10386 10385 10385 10384 10383 10382 10382 10382 10382 10382 10383 10385 10388 10392 10397 10400 10402 10406 10411 10416 10420 10424 10428 10433 10437 10441 10444 10449 10454 10458 10462 10466 10470 10474 10477 10480 10481 10484
10525 10524 10523 10522 10521 10519 10518 10516 10514 10512 10510 10509 10507 10505 10503 10501 10498 10496 10493 10490 10487 10483 10480 10477 10473 10469 10465 10461 10457 10453 10448 10444 10440 10435 10430 10425 10420 10415 10411 10407 10402 10398 10393 10388 10384 10380 10377 10374 10373 10372 10371 10370 10369 10368 10369 10370 10370 10370 10371 10374 10379 10383 10386 10389 10392 10396 10401 10407 10412 10417 10421 10424 10428 10432 10436 10440 10445 10450 10456 10460 10463 10467 10470 10472 10474
10518 10517 10516 10515 10514 10513 10511 10510 10508 10506 10504 10502 10500 10498 10496 10493 10491 10488 10485 10482 10478 10475 10471 10468 10464 10460 10457 10453 10448 10444 10439 10435 10430 10425 10420 10415 10410 10405 10401 10397 10393 10388 10384 10379 10375 10372 10368 10365 10362 10361 10360 10358 10357 10356 10356 10357 10358 10358 10359 10361 10365 10369 10373 10376 10379 10383 10389 10395 10400 10405 10408 10411 10415 10419 10422 10426 10432 10438 10443 10447 10452 10456 10459 10461 10463
10512 10511 10510 10509 10508 10507 10505 10503 10501 10499 10497 10495 10493 10491 10488 10486 10483 10480 10477 10473 10470 10466 10462 10459 10455 10451 10448 10444 10439 10434 10429 10424 10419 10414 10410 10405 10401 10397 10392 10388 10383 10379 10375 10371 10367 10364 10361 10358 10354 10351 10350 10348 10347 10345 10345 10346 10347 10348 10348 10350 10353 10357 10361 10365 10368 10371 10377 10383 10388 10392 10396 10399 10403 10407 10410 10414 10420 10425 10430 10434 10439 10444 10448 10451 10453
10505 10504 10503 10502 10501 10500 10498 10496 10495 10493 10491 10489 10486 10484 10481 10478 10475 10472 10468 10465 10461 10457 10454 10450 10446 10442 10438 10434 10429 10424 10419 10414 10409 10404 10400 10396 10392 10388 10384 10380 10375 10371 10366 10362 10359 10356 10353 10350 10346 10343 10340 10338 10337 10336 10335 10336 10337 10338 10338 10340 10342 10346 10349 10353 10357 10360 10365 10370 10375 10380 10384 10387 10391 10394 10397 10402 10407 10412 10417 10422 10426 10431 10436 10440 10443
10499 10497 10496 10495 10494 10493 10491 10490 10488 10486 10484 10482 10479 10477 10474 10470 10467 10464 10460 10456 10453 10449 10446 10442 10438 10434 10430 10425 10420 10415 10410 10405 10400 10395 10391 10387 10383 10379 10375 10371 10367 10362 10357 10352 10349 10346 10343 10341 10339 10336 10333 10330 10327 10327 10327 10327 10327 10328 10329 10331 10332 10335 10338 10342 10346 10349 10352 10356 10360 10366 10369 10372 10375 10379 10384 10389 10394 10400 10404 10409 10414 10419 10424 10428 10433
10492 10491 10490 10489 10487 10486 10485 10483 10481 10479 10477 10474 10472 10469 10466 10463 10459 10456 10452 10448 10445 10441 10438 10434 10430 10426 10421 10416 10411 10406 10401 10396 10391 10386 10382 10378 10375 10371 10367 10363 10359 10354 10349 10344 10340 10337 10335 10333 10331 10329 10327 10324 10321 10319 10319 10319 10319 10319 10320 10322 10324 10325 10328 10331 10335 10338 10341 10343 10348 10353 10356 10358 10361 10367 10373 10378 10383 10388 10393 10398 10403 10407 10412 10417 10422
10486 10484 10483 10482 10481 10480 10478 10476 10474 10472 10469 10467 10464 10461 10458 10455 10452 10448 10444 10441 10437 10433 10428 10424 10421 10416 10412 10407 10403 10398 10393 10388 10384 10380 10376 10371 10368 10364 10360 10356 10353 10349 10344 10339 10335 10330 10327 10325 10323 10321 10319 10317 10315 10313 10312 10312 10311 10311 10312 10314 10315 10316 10319 10322 10326 10329 10331 10335 10339 10343 10345 10348 10352 10359 10363 10367 10372 10377 10382 10387 10392 10396 10400 10405 10410
10480 10478 10477 10476 10474 10473 10471 10470 10467 10465 10462 10459 10456 10453 10450 10447 10444 10440 10437 10433 10429 10425 10420 10416 10412 10407 10403 10399 10394 10389 10385 10381 10377 10373 10370 10366 10362 10359 10355 10351 10348 10344 10340 10335 10330 10326 10321 10318 10316 10314 10312 10310 10309 10307 10306 10305 10305 10304 10305 10306 10307 10309 10311 10314 10317 10320 10322 10325 10329 10331 10334 10337 10343 10348 10353 10357 10362 10366 10370 10376 10380 10384 10388 10393 10398
10474 10472 10471 10470 10468 10466 10465 10462 10460 10457 10455 10452 10448 10445 10442 10439 10435 10432 10429 10425 10422 10417 10413 10408 10404 10400 10396 10391 10386 10382 10378 10374 10371 10367 10363 10360 10357 10354 10350 10346 10342 10338 10334 10330 10326 10321 10317 10314 10311 10308 10307 10305 10303 10301 10300 10299 10298 10298 10299 10299 10300 10302 10304 10306 10309 10312 10314 10316 10320 10322 10325 10327 10331 10337 10342 10346 10350 10353 10358 10364 10370 10374 10377 10381 10386
10467 10466 10465 10464 10462 10460 10458 10455 10453 10450 10447 10444 10441 10437 10434 10430 10427 10423 10420 10417 10413 10409 10405 10400 10396 10392 10388 10385 10380 10376 10372 10369 10366 10362 10358 10355 10352 10349 10345 10342 10338 10334 10330 10326 10322 10318 10314 10311 10307 10304 10302 10300 10298 10296 10295 10294 10293 10293 10293 10293 10294 10295 10297 10299 10301 10304 10306 10308 10311 10314 10316 10318 10321 10325 10331 10336 10339 10342 10346 10352 10358 10362 10366 10370 10375
10461 10460 10459 10457 10455 10453 10451 10448 10446 10443 10439 10436 10433 10429 10426 10422 10419 10415 10411 10408 10405 10401 10397 10393 10388 10384 10381 10378 10374 10371 10367 10363 10360 10357 10354 10350 10347 10343 10340 10336 10332 10329 10325 10321 10318 10314 10311 10307 10304 10301 10298 10295 10293 10291 10290 10289 10288 10288 10287 10288 10288 10289 10290 10292 10293 10296 10298 10300 10302 10305 10307 10310 10312 10315 10320 10326 10329 10331 10336 10341 10347 10352 10356 10360 10364
10455 10454 10452 10451 10449 10447 10445 10442 10439 10435 10432 10428 10425 10421 10418 10414 10410 10406 10403 10400 10396 10393 10389 10385 10381 10378 10374 10371 10368 10365 10362 10358 10355 10352 10349 10346 10343 10340 10336 10333 10329 10325 10321 10317 10314 10310 10307 10303 10300 10297 10294 10292 10289 10288 10285 10284 10283 10283 10282 10283 10283 10283 10285 10286 10287 10288 10290 10292 10294 10297 10299 10301 10304 10307 10311 10315 10318 10321 10326 10331 10337 10341 10345 10348 10352
10449 10447 10446 10444 10442 10440 10438 10435 10431 10428 10424 10421 10417 10413 10410 10406 10402 10398 10394 10391 10388 10385 10382 10379 10375 10371 10368 10365 10362 10360 10357 10353 10350 10347 10345 10342 10339 10336 10333 10330 10326 10322 10317 10313 10310 10306 10302 10299 10295 10292 10290 10287 10285 10283 10282 10280 10279 10278 10278 10278 10278 10278 10279 10280 10281 10282 10283 10285 10287 10289 10291 10293 10295 10298 10302 10305 10308 10311 10315 10320 10325 10330 10333 10336 10339
10442 10441 10439 10437 10435 10433 10430 10427 10424 10420 10417 10413 10410 10406 10402 10399 10395 10391 10386 10383 10380 10377 10375 10372 10369 10365 10362 10360 10357 10354 10351 10348 10345 10343 10340 10337 10335 10332 10328 10325 10321 10318 10314 10310 10306 10303 10299 10295 10292 10288 10286 10283 10281 10279 10278 10276 10274 10273 10273 10273 10273 10273 10273 10274 10275 10276 10277 10278 10280 10281 10283 10285 10287 10290 10293 10296 10299 10302 10305 10309 10314 10318 10321 10324 10327
10436 10434 10432 10430 10428 10425 10422 10419 10416 10413 10409 10405 10402 10398 10395 10391 10388 10383 10379 10376 10372 10370 10367 10365 10363 10360 10357 10354 10352 10349 10346 10344 10341 10338 10335 10333 10330 10327 10324 10321 10318 10314 10311 10307 10303 10299 10296 10292 10289 10286 10282 10280 10277 10275 10274 10272 10271 10270 10269 10268 10268 10269 10269 10269 10269 10270 10271 10272 10273 10274 10275 10277 10279 10281 10284 10287 10289 10292 10294 10298 10301 10305 10308 10311 10314
10430 10428 10426 10423 10420 10417 10414 10412 10409 10405 10401 10398 10394 10391 10387 10384 10381 10377 10373 10369 10366 10363 10361 10359 10357 10355 10352 10350 10347 10344 10342 10339 10337 10334 10332 10329 10326 10324 10321 10318 10315 10311 10308 10304 10301 10297 10293 10289 10286 10283 10280 10277 10274 10272 10270 10269 10267 10266 10265 10264 10264 10264 10264 10264 10264 10265 10265 10266 10266 10267 10268 10269 10271 10272 10275 10277 10279 10282 10284 10287 10289 10292 10295 10297 10300
10423 10421 10418 10415 10412 10409 10407 10404 10401 10397 10393 10390 10387 10383 10380 10376 10374 10371 10367 10363 10360 10357 10355 10353 10351 10349 10347 10345 10342 10340 10337 10335 10333 10331 10329 10326 10324 10321 10318 10315 10311 10308 10305 10301 10298 10294 10291 10287 10284 10280 10277 10275 10272 10269 10267 10265 10264 10262 10261 10260 10260 10259 10259 10259 10259 10259 10260 10260 10261 10261 10261 10262 10263 10264 10266 10268 10270 10272 10274 10277 10279 10280 10282 10284 10287
10416 10413 10411 10408 10405 10402 10399 10396 10392 10389 10386 10382 10379 10376 10373 10370 10367 10364 10361 10358 10355 10352 10350 10348 10346 10344 10342 10340 10338 10336 10333 10331 10329 10327 10325 10323 10320 10317 10314 10311 10308 10305 10301 10298 10295 10291 10288 10285 10282 10278 10275 10272 10270 10267 10265 10262 10260 10259 10258 10257 10256 10255 10254 10254 10254 10254 10254 10254 10255 10255 10255 10256 10256 10257 10258 10259 10261 10263 10264 10266 10268 10270 10272 10273 10275
10408 10406 10403 10400 10397 10394 10391 10388 10385 10382 10378 10375 10372 10370 10367 10364 10361 10358 10355 10352 10350 10348 10345 10343 10341 10339 10337 10335 10333 10331 10329 10327 10325 10324 10321 10319 10316 10314 10311 10307 10304 10301 10298 10295 10292 10288 10285 10282 10279 10276 10273 10270 10268 10265 10263 10260 10258 10256 10255 10253 10252 10251 10250 10250 10249 10249 10249 10249 10249 10249 10249 10250 10250 10250 10250 10251 10252 10253 10254 10256 10258 10259 10261 10263 10264
10401 10398 10396 10393 10390 10386 10383 10381 10378 10375 10372 10368 10365 10363 10360 10358 10355 10352 10350 10347 10345 10342 10340 10338 10336 10334 10332 10331 10329 10327 10325 10323 10321 10320 10317 10315 10312 10309 10307 10304 10301 10298 10295 10291 10288 10285 10282 10279 10276 10274 10271 10268 10266 10263 10261 10258 10256 10254 10252 10251 10249 10248 10247 10246 10245 10244 10244 10244 10244 10244 10244 10244 10244 10244 10244 10244 10244 10245 10245 10246 10247 10249 10250 10252 10253
10393 10391 10388 10385 10382 10379 10376 10373 10370 10368 10365 10362 10359 10357 10354 10352 10349 10347 10345 10342 10339 10337 10335 10333 10331 10330 10328 10327 10325 10323 10322 10320 10318 10316 10313 10311 10309 10306 10303 10300 10297 10294 10291 10288 10285 10282 10279 10276 10273 10270 10268 10265 10263 10260 10258 10256 10254 10251 10249 10248 10246 10245 10244 10242 10241 10240 10239 10239 10238 10238 10238 10238 10237 10237 10237 10237 10237 10237 10237 10238 10238 10239 10240 10241 10242
10386 10383 10381 10377 10374 10371 10368 10365 10363 10361 10359 10356 10353 10351 10349 10347 10344 10342 10339 10337 10335 10333 10331 10329 10327 10326 10324 10323 10321 10319 10318 10316 10314 10312 10310 10308 10305 10302 10300 10297 10294 10291 10288 10285 10282 10278 10275 10273 10270 10267 10264 10262 10259 10257 10255 10253 10251 10249 10247 10245 10243 10241 10240 10239 10238 10236 10235 10234 10233 10233 10232 10232 10231 10231 10231 10231 10231 10230 10230 10230 10230 10231 10231 10231 10232
10378 10376 10373 10370 10367 10364 10361 10358 10356 10354 10352 10350 10348 10345 10343 10341 10339 10337 10335 10333 10331 10329 10327 10326 10324 10322 10321 10319 10317 10316 10314 10312 10310 10308 10306 10304 10302 10299 10297 10294 10291 10288 10285 10282 10279 10276 10272 10269 10267 10264 10261 10259 10256 10254 10252 10250 10248 10246 10244 10242 10240 10238 10236 10235 10233 10232 10231 10230 10229 10228 10227 10226 10226 10225 10225 10224 10224 10223 10223 10223 10223 10223 10223 10223 10223
10370 10368 10366 10363 10360 10357 10355 10352 10350 10348 10346 10345 10343 10340 10338 10336 10334 10333 10331 10329 10327 10326 10324 10322 10321 10319 10318 10316 10314 10312 10311 10309 10307 10305 10303 10301 10298 10296 10293 10290 10288 10285 10282 10279 10276 10273 10270 10267 10264 10261 10258 10256 10253 10251 10249 10246 10244 10242 10240 10238 10237 10235 10233 10231 10229 10228 10226 10225 10224 10223 10222 10221 10220 10219 10218 10218 10217 10217 10216 10216 10215 10215 10215 10215 10215
10363 10361 10359 10356 10354 10351 10349 10346 10344 10342 10341 10339 10337 10335 10333 10331 10330 10328 10327 10325 10324 10322 10321 10319 10318 10316 10314 10313 10311 10309 10307 10305 10303 10301 10299 10297 10294 10292 10289 10287 10284 10281 10279 10276 10273 10270 10267 10264 10261 10258 10255 10252 10250 10247 10245 10243 10241 10239 10237 10235 10233 10231 10229 10227 10226 10224 10222 10221 10219 10218 10217 10215 10214 10213 10212 10211 10211 10210 10209 10208 10208 10207 10207 10207 10207
10356 10354 10352 10350 10348 10346 10343 10341 10339 10337 10335 10333 10332 10330 10329 10327 10325 10324 10323 10321 10320 10319 10317 10316 10315 10313 10311 10309 10308 10306 10304 10302 10300 10298 10295 10293 10290 10288 10285 10283 10280 10278 10275 10272 10269 10267 10263 10260 10257 10254 10252 10249 10246 10244 10242 10239 10237 10235 10233 10231 10229 10228 10226 10224 10222 10220 10218 10217 10215 10214 10212 10211 10209 10208 10206 10205 10204 10203 10202 10201 10201 10200 10199 10199 10198
10350 10348 10346 10344 10342 10340 10338 10336 10334 10332 10330 10328 10327 10325 10324 10323 10321 10320 10318 10317 10316 10315 10313 10312 10311 10309 10308 10306 10305 10303 10301 10299 10297 10294 10292 10289 10287 10284 10281 10279 10276 10273 10271 10268 10266 10263 10260 10257 10254 10251 10248 10245 10243 10240 10238 10236 10233 10231 10229 10227 10225 10224 10222 10220 10218 10216 10214 10212 10211 10209 10208 10206 10204 10203 10201 10200 10198 10197 10195 10194 10193 10192 10191 10191 10190
10343 10342 10340 10338 10336 10334 10333 10331 10329 10327 10325 10324 10322 10321 10319 10318 10317 10316 10314 10313 10312 10310 10309 10308 10306 10305 10304 10302 10301 10299 10297 10295 10293 10291 10288 10286 10283 10280 10278 10275 10272 10269 10266 10263 10261 10258 10256 10253 10251 10248 10245 10242 10239 10236 10234 10232 10229 10227 10225 10223 10221 10219 10218 10216 10214 10212 10210 10208 10206 10204 10202 10201 10199 10198 10196 10194 10193 10191 10189 10188 10186 10185 10184 10183 10182
10338 10336 10334 10333 10331 10329 10328 10327 10325 10323 10321 10320 10318 10316 10315 10314 10313 10311 10310 10309 10308 10306 10305 10304 10302 10301 10299 10298 10296 10295 10293 10291 10289 10286 10284 10282 10279 10277 10274 10271 10268 10265 10262 10259 10256 10253 10251 10248 10246 10243 10241 10238 10236 10233 10230 10228 10225 10223 10221 10219 10217 10215 10213 10211 10209 10208 10206 10204 10202 10199 10197 10195 10194 10192 10190 10189 10187 10185 10183 10182 10180 10178 10176 10175 10173